Weather History for KLWT - May, 2013

Change the Weather History Date:

Friday, May 24, 2013

  Actual Average Record
Temperature  
Mean Temperature 52 °F 52 °F  
Max Temperature 63 °F 65 °F 88 °F (1929)
Min Temperature 41 °F 40 °F 29 °F (1993)
Degree Days  
Heating Degree Days 13 13  
Month to date heating degree days 329 385  
Since 1 July heating degree days 7742 7892  
Cooling Degree Days 0 0  
Month to date cooling degree days 3 0  
Year to date cooling degree days 3 0  
Growing Degree Days 2 (Base 50)    
Moisture  
Dew Point 38 °F    
Average Humidity 63    
Maximum Humidity 100    
Minimum Humidity 25    
Precipitation  
Precipitation 0.14 in 0.11 in 1.19 in (2008)
Month to date precipitation 2.57 2.06  
Year to date precipitation 5.93 5.47  
Snow  
Snow 0.00 in - - ()
Snow Depth 0.00 in    
Sea Level Pressure  
Sea Level Pressure 29.87 in    
Wind  
Wind Speed 11 mph (West)    
Max Wind Speed 28 mph    
Max Gust Speed 36 mph    
Visibility 9 miles    
Events Rain    
T = Trace of Precipitation, MM = Missing Value Source: NWS Daily Summary

Daily Weather History Graph

Daily Weather History Graph

Search for Another Location

Airport or City:

Trip Planner

Search our weather history database for the weather conditions in past years. The results will help you decide how hot, cold, wet, or windy it might be!

Date:

Astronomy

May. 24, 2013 Rise Set
Actual Time 5:32 AM MDT 8:57 PM MDT
Civil Twilight 4:54 AM MDT 9:35 PM MDT
Nautical Twilight 4:05 AM MDT 10:25 PM MDT
Astronomical Twilight 3:01 AM MDT 11:30 PM MDT
Moon 8:41 PM MDT (5/24) 5:10 AM MDT (5/24)
Length of Visible Light 16h 40m
Length of Day
15h 25m
Full, 100% of the Moon is Illuminated
May 24
Full
May 24
Full
May 31
Last Quarter
Jun 8
New
Jun 16
First Quarter

Hourly Weather History & Observations

Time (MDT) Temp. Windchill Dew Point Humidity Pressure Visibility Wind Dir Wind Speed Gust Speed Precip Events Conditions
12:21 AM 44.6 °F 40.2 °F 44.6 °F 100% 29.83 in 10.0 mi West 8.1 mph - 0.00 in   Overcast
12:54 AM 45.0 °F 37.9 °F 45.0 °F 100% 29.83 in 4.0 mi WNW 16.1 mph 24.2 mph 0.00 in   Overcast
1:38 AM 44.6 °F 40.2 °F 44.6 °F 100% 29.82 in 10.0 mi NW 8.1 mph - N/A   Overcast
1:54 AM 45.0 °F 41.8 °F 44.1 °F 97% 29.79 in 10.0 mi NNE 5.8 mph - 0.00 in Rain Light Rain
2:54 AM 43.0 °F 36.8 °F 42.1 °F 97% 29.81 in 10.0 mi NW 11.5 mph 23.0 mph 0.00 in Rain Light Rain
3:22 AM 42.8 °F 36.6 °F 41.0 °F 93% 29.83 in 10.0 mi NW 11.5 mph - 0.01 in   Overcast
3:54 AM 42.1 °F 38.4 °F 41.0 °F 96% 29.81 in 10.0 mi NW 5.8 mph - 0.01 in   Overcast
4:08 AM 42.8 °F 37.5 °F 41.0 °F 93% 29.83 in 10.0 mi WNW 9.2 mph - N/A   Overcast
4:12 AM 42.8 °F 37.5 °F 41.0 °F 93% 29.84 in 10.0 mi WNW 9.2 mph - N/A   Overcast
4:38 AM 42.8 °F 35.8 °F 41.0 °F 93% 29.88 in 2.5 mi West 13.8 mph - 0.05 in Rain Rain
4:45 AM 42.8 °F 36.6 °F 41.0 °F 93% 29.88 in 4.0 mi West 11.5 mph - 0.07 in Rain Rain
4:54 AM 42.1 °F 38.4 °F 41.0 °F 96% 29.86 in 9.0 mi WNW 5.8 mph - 0.07 in Rain Light Rain
5:03 AM 42.8 °F 37.5 °F 41.0 °F 93% 29.88 in 9.0 mi WNW 9.2 mph - 0.01 in Rain Light Rain
5:17 AM 41.0 °F 35.2 °F 39.2 °F 93% 29.87 in 5.0 mi NW 9.2 mph - 0.04 in Rain Rain
5:27 AM 41.0 °F 35.2 °F 39.2 °F 93% 29.87 in 8.0 mi NW 9.2 mph - 0.05 in Rain Light Rain
5:33 AM 41.0 °F 38.0 °F 39.2 °F 93% 29.87 in 8.0 mi WNW 4.6 mph - 0.05 in Rain Light Rain
5:54 AM 41.0 °F 38.0 °F 41.0 °F 100% 29.87 in 10.0 mi West 4.6 mph - 0.05 in Rain Light Rain
6:01 AM 41.0 °F - 41.0 °F 100% 29.89 in 10.0 mi Calm Calm - 0.00 in Rain Light Rain
6:21 AM 41.0 °F - 41.0 °F 100% 29.87 in 10.0 mi Calm Calm - 0.01 in Rain Light Rain
6:54 AM 41.0 °F 38.0 °F 39.9 °F 96% 29.86 in 10.0 mi North 4.6 mph - 0.01 in   Overcast
7:09 AM 41.0 °F - 41.0 °F 100% 29.85 in 10.0 mi Calm Calm - N/A   Overcast
7:34 AM 41.0 °F - 41.0 °F 100% 29.85 in 6.0 mi Calm Calm - N/A   Mostly Cloudy
7:39 AM 41.0 °F - 41.0 °F 100% 29.85 in 1.8 mi Calm Calm - N/A   Mostly Cloudy
7:48 AM 42.8 °F 38.0 °F 41.0 °F 93% 29.86 in 3.0 mi NW 8.1 mph - N/A   Overcast
7:54 AM 42.1 °F 37.7 °F 41.0 °F 96% 29.88 in 8.0 mi WNW 6.9 mph - N/A   Overcast
8:08 AM 42.8 °F 36.6 °F 39.2 °F 87% 29.87 in 10.0 mi WNW 11.5 mph - N/A   Overcast
8:51 AM 44.6 °F 38.4 °F 39.2 °F 81% 29.88 in 10.0 mi West 12.7 mph - N/A   Partly Cloudy
8:54 AM 45.0 °F 39.3 °F 39.9 °F 82% 29.88 in 10.0 mi West 11.5 mph - N/A   Partly Cloudy
9:54 AM 50.0 °F - 41.0 °F 71% 29.88 in 10.0 mi WSW 17.3 mph 24.2 mph N/A   Partly Cloudy
10:54 AM 53.1 °F - 34.0 °F 48% 29.89 in 10.0 mi WSW 23.0 mph 29.9 mph N/A   Clear
11:54 AM 55.0 °F - 34.0 °F 45% 29.91 in 10.0 mi WSW 15.0 mph - N/A   Clear
12:54 PM 55.9 °F - 34.0 °F 44% 29.89 in 10.0 mi SSW 11.5 mph 20.7 mph N/A   Scattered Clouds
1:54 PM 59.0 °F - 33.1 °F 38% 29.88 in 10.0 mi WSW 11.5 mph 21.9 mph N/A   Mostly Cloudy
2:54 PM 61.0 °F - 30.9 °F 32% 29.88 in 10.0 mi WSW 15.0 mph 26.5 mph N/A   Mostly Cloudy
3:54 PM 63.0 °F - 28.9 °F 28% 29.88 in 10.0 mi SW 23.0 mph 34.5 mph N/A   Scattered Clouds
4:54 PM 63.0 °F - 27.0 °F 26% 29.88 in 10.0 mi WSW 21.9 mph 31.1 mph N/A   Clear
5:54 PM 63.0 °F - 28.0 °F 27% 29.88 in 10.0 mi WSW 20.7 mph 31.1 mph N/A   Clear
6:54 PM 62.1 °F - 30.0 °F 30% 29.87 in 10.0 mi WSW 13.8 mph - N/A   Clear
7:54 PM 60.1 °F - 35.1 °F 39% 29.88 in 10.0 mi SSW 5.8 mph - N/A   Clear
8:54 PM 55.9 °F - 36.0 °F 47% 29.89 in 10.0 mi SE 4.6 mph - N/A   Clear
9:54 PM 50.0 °F - 37.9 °F 63% 29.92 in 10.0 mi SE 5.8 mph - N/A   Scattered Clouds
10:54 PM 51.1 °F - 36.0 °F 56% 29.92 in 10.0 mi Variable 3.5 mph - N/A   Clear
11:54 PM 51.1 °F - 35.1 °F 54% 29.94 in 10.0 mi NNE 8.1 mph - N/A   Overcast